ESGJ

Details ICAO ESGJ (JKG)
Name Jonkoping
Region Sweden
Timezone Europe/Stockholm (UTC+2.0)
Plans Departing 65
Arriving 51
Stats Elevation 741 ft / 226 m (AMSL)
Location 57.755046° 14.071101°
Runways 2
Magnetic Variation 4.455° E
Sunrise 2018-05-27 02:21:11 UTC / 2018-05-27 04:21:11 Local
Sunset 2018-05-27 19:43:26 UTC / 2018-05-27 21:43:26 Local
Advertisement - Login to hide

Runways

ID Width Length Bearing (true) Bearing (mag) Surface Threshold Offset Overrun Length
01 148 ft / 45 m 7,218 ft / 2,200 m 18.04° 13.58° Asphalt 0 ft / 0 m 212 ft / 65 m
11 82 ft / 25 m 1,960 ft / 598 m 114.43° 109.97° Dirt 0 ft / 0 m 0 ft / 0 m
19 148 ft / 45 m 7,218 ft / 2,200 m 198.05° 193.59° Asphalt 0 ft / 0 m 117 ft / 36 m
29 82 ft / 25 m 1,960 ft / 598 m 294.44° 289.98° Dirt 0 ft / 0 m 0 ft / 0 m

Approach Navaids

Runway Type Ident Frequency Range Bearing (true) Bearing (mag) Slope Elevation
19 Localiser SJ 109.90 MHz 18 nm / 33 km 198.03° 193.57° - 741 ft / 226 m (AMSL)
19 Glidescope SJ 109.90 MHz 10 nm / 19 km 198.04° 193.59° 3.00° 741 ft / 226 m (AMSL)

Map

Weather


0- 5 10 15 20 25 30 35+ Temperature / ° C

Clouds and Precipitation
Forecast for 2018-05-27 00:00 UTC. Updated 2 hours ago

Ground ~20,000 ft ~40,000 ft Winds

METAR

ESGJ 270120Z AUTO 01003KT 9999 BKN068/// 15/11 Q1027

TAF

Not found

Frequencies

Tower 118.25 MHz TWR
Warning: Do not use this data for real-world aviation or navigation. No guarantee of current accuracy is given.